TimeEST,TemperatureF,Dew PointF,Humidity,Sea Level PressureIn,VisibilityMPH,Wind Direction,Wind SpeedMPH,Gust SpeedMPH,PrecipitationIn,Events,Conditions,WindDirDegrees,DateUTC
12:52 AM,9.0,6.1,88,30.33,10.0,Calm,Calm,-,N/A,,Clear,0,2013-02-11 05:52:00
1:52 AM,10.0,7.0,87,30.31,9.0,Calm,Calm,-,N/A,,Clear,0,2013-02-11 06:52:00
2:52 AM,12.0,9.0,88,30.28,10.0,Calm,Calm,-,N/A,,Scattered Clouds,0,2013-02-11 07:52:00
3:52 AM,12.9,10.0,88,30.25,10.0,Calm,Calm,-,N/A,,Scattered Clouds,0,2013-02-11 08:52:00
4:52 AM,14.0,10.9,88,30.23,10.0,Calm,Calm,-,N/A,,Clear,0,2013-02-11 09:52:00
5:52 AM,15.1,10.9,84,30.23,10.0,Calm,Calm,-,N/A,,Overcast,0,2013-02-11 10:52:00
6:52 AM,17.1,12.0,81,30.19,3.0,Calm,Calm,-,0.00,Snow,Light Snow,0,2013-02-11 11:52:00
6:57 AM,17.6,12.2,79,30.16,1.8,Calm,Calm,-,0.00,Snow,Light Snow,0,2013-02-11 11:57:00
7:04 AM,17.6,12.2,79,30.16,1.0,Calm,Calm,-,0.01,Snow,Light Snow,0,2013-02-11 12:04:00
7:14 AM,17.6,14.0,86,30.15,0.8,Calm,Calm,-,0.02,Snow,Light Snow,0,2013-02-11 12:14:00
7:23 AM,17.6,14.0,86,30.15,1.2,Calm,Calm,-,0.02,Snow,Light Snow,0,2013-02-11 12:23:00
7:50 AM,17.6,15.8,93,30.12,1.0,Calm,Calm,-,0.04,Snow,Light Snow,0,2013-02-11 12:50:00
7:52 AM,18.0,16.0,92,30.16,1.2,Calm,Calm,-,0.04,Snow,Light Snow,0,2013-02-11 12:52:00
8:01 AM,17.6,15.8,93,30.12,1.8,Calm,Calm,-,0.01,Snow,Light Snow,0,2013-02-11 13:01:00
8:09 AM,19.4,15.8,86,30.11,2.5,Calm,Calm,-,0.03,,Overcast,0,2013-02-11 13:09:00
8:16 AM,19.4,15.8,86,30.09,1.2,Calm,Calm,-,0.03,Snow,Light Snow,0,2013-02-11 13:16:00
8:21 AM,19.4,15.8,86,30.09,0.8,Calm,Calm,-,0.04,Snow,Light Snow,0,2013-02-11 13:21:00
8:29 AM,19.4,17.6,93,30.09,1.2,Calm,Calm,-,0.04,Snow,Light Snow,0,2013-02-11 13:29:00
8:32 AM,19.4,17.6,93,30.08,2.0,Calm,Calm,-,0.04,Snow,Light Snow,0,2013-02-11 13:32:00
8:45 AM,19.4,17.6,93,30.08,3.0,West,3.5,-,0.04,Snow,Light Snow,280,2013-02-11 13:45:00
8:52 AM,21.0,18.0,88,30.11,4.0,Calm,Calm,-,0.05,,Overcast,0,2013-02-11 13:52:00
9:12 AM,21.2,19.4,93,30.06,1.8,Calm,Calm,-,0.01,Snow,Light Snow,0,2013-02-11 14:12:00
9:21 AM,21.2,19.4,93,30.06,3.0,Calm,Calm,-,0.02,Snow,Light Snow,0,2013-02-11 14:21:00
9:29 AM,23.0,21.2,93,30.05,2.5,Calm,Calm,-,0.02,,Overcast,0,2013-02-11 14:29:00
9:40 AM,24.8,21.2,86,30.05,2.5,Calm,Calm,-,0.02,Rain,Light Freezing Rain,0,2013-02-11 14:40:00
9:52 AM,24.1,21.9,91,30.07,2.0,Calm,Calm,-,0.03,Snow,Light Snow,0,2013-02-11 14:52:00
9:57 AM,24.8,23.0,93,30.03,1.2,Calm,Calm,-,0.00,Snow,Light Snow,0,2013-02-11 14:57:00
10:09 AM,24.8,23.0,93,30.02,2.0,Calm,Calm,-,0.02,Snow,Light Snow,0,2013-02-11 15:09:00
10:19 AM,24.8,23.0,93,30.01,1.8,Calm,Calm,-,0.03,Snow,Light Snow,0,2013-02-11 15:19:00
10:47 AM,26.6,26.6,100,29.97,2.0,Calm,Calm,-,0.04,,Overcast,0,2013-02-11 15:47:00
10:48 AM,28.0,26.1,92,30.01,2.0,Calm,Calm,-,0.04,,Overcast,0,2013-02-11 15:48:00
10:51 AM,28.4,26.6,93,29.97,1.8,Calm,Calm,-,0.00,Rain,Light Freezing Rain,0,2013-02-11 15:51:00
11:12 AM,28.4,26.6,93,29.94,1.0,Calm,Calm,-,0.01,Rain,Light Freezing Rain,0,2013-02-11 16:12:00
11:33 AM,28.4,28.4,100,29.92,1.5,Calm,Calm,-,0.03,Rain,Light Freezing Rain,0,2013-02-11 16:33:00
11:41 AM,30.2,28.4,93,29.92,1.2,Calm,Calm,-,0.03,Rain,Light Freezing Rain,0,2013-02-11 16:41:00
11:52 AM,30.0,28.9,96,29.94,1.2,Calm,Calm,-,0.05,Rain,Light Freezing Rain,0,2013-02-11 16:52:00
11:58 AM,30.2,28.4,93,29.90,1.5,Calm,Calm,-,0.02,Rain,Light Freezing Rain,0,2013-02-11 16:58:00
12:07 PM,30.2,30.2,100,29.89,1.5,Calm,Calm,-,0.03,Rain,Light Freezing Rain,0,2013-02-11 17:07:00
12:17 PM,32.0,30.2,93,29.88,1.8,Calm,Calm,-,0.04,,Overcast,0,2013-02-11 17:17:00
12:27 PM,33.8,32.0,93,29.87,3.0,Calm,Calm,-,0.04,,Overcast,0,2013-02-11 17:27:00
12:40 PM,33.8,32.0,93,29.84,3.0,Calm,Calm,-,0.05,Rain,Light Rain,0,2013-02-11 17:40:00
12:45 PM,33.8,32.0,93,29.84,1.8,Calm,Calm,-,0.05,Rain,Light Rain,0,2013-02-11 17:45:00
12:52 PM,33.1,30.9,92,29.87,1.2,NW,4.6,-,0.05,Rain,Light Rain,320,2013-02-11 17:52:00
1:04 PM,33.8,32.0,93,29.82,1.5,NNW,3.5,-,0.00,,Overcast,330,2013-02-11 18:04:00
1:15 PM,33.8,32.0,93,29.82,1.2,Calm,Calm,-,0.01,Rain,Light Rain,0,2013-02-11 18:15:00
1:29 PM,33.8,32.0,93,29.80,1.0,Calm,Calm,-,0.01,Rain,Light Rain,0,2013-02-11 18:29:00
1:39 PM,33.8,32.0,93,29.80,0.8,NNW,4.6,-,0.01,,Overcast,340,2013-02-11 18:39:00
1:52 PM,33.1,32.0,96,29.82,1.0,NE,3.5,-,0.01,,Overcast,40,2013-02-11 18:52:00
2:13 PM,33.8,32.0,93,29.78,0.8,Calm,Calm,-,N/A,,Overcast,0,2013-02-11 19:13:00
2:52 PM,33.1,33.1,100,29.80,0.8,Calm,Calm,-,N/A,,Overcast,0,2013-02-11 19:52:00
3:52 PM,34.0,33.1,96,29.75,0.2,Calm,Calm,-,N/A,Fog,Fog,0,2013-02-11 20:52:00
4:52 PM,33.1,33.1,100,29.72,0.2,Calm,Calm,-,N/A,Fog,Fog,0,2013-02-11 21:52:00
5:52 PM,33.1,33.1,100,29.71,0.2,Calm,Calm,-,N/A,Fog,Fog,0,2013-02-11 22:52:00
6:52 PM,33.1,33.1,100,29.69,0.2,Calm,Calm,-,N/A,Fog,Fog,0,2013-02-11 23:52:00
7:52 PM,33.1,32.0,96,29.66,0.2,Calm,Calm,-,N/A,Fog,Fog,0,2013-02-12 00:52:00
8:52 PM,33.1,33.1,100,29.67,0.5,Calm,Calm,-,N/A,Fog,Fog,0,2013-02-12 01:52:00
9:52 PM,34.0,33.1,96,29.65,0.5,Calm,Calm,-,N/A,Fog,Fog,0,2013-02-12 02:52:00
10:28 PM,33.8,33.8,100,29.63,0.5,Calm,Calm,-,N/A,Fog,Fog,0,2013-02-12 03:28:00
10:48 PM,33.8,33.8,100,29.65,1.2,WNW,5.8,-,N/A,,Overcast,300,2013-02-12 03:48:00
10:52 PM,36.0,34.0,93,29.68,2.0,West,10.4,17.3,N/A,,Overcast,280,2013-02-12 03:52:00
10:59 PM,37.4,35.6,93,29.65,6.0,WNW,6.9,17.3,0.00,Rain,Light Rain,300,2013-02-12 03:59:00
11:06 PM,37.4,35.6,93,29.65,10.0,NW,8.1,-,0.00,,Overcast,320,2013-02-12 04:06:00
11:52 PM,36.0,33.1,89,29.66,10.0,WNW,8.1,-,0.00,,Overcast,290,2013-02-12 04:52:00